Lexington, NE

6:20 AM CST on November 18, 2017 (GMT -0600)
Kelly

Weather History for KLXN - October, 2012

Change the Weather History Date:

Thursday, October 11, 2012

  Actual Average Record
Temperature  
Mean Temperature 48 °F -  
Max Temperature 58 °F 64 °F 95 °F (2015)
Min Temperature 37 °F 38 °F 28 °F (2001)
Degree Days  
Heating Degree Days 18    
Moisture  
Dew Point 31 °F    
Average Humidity 55    
Maximum Humidity 79    
Minimum Humidity 40    
Precipitation  
Precipitation 0.00 in - - ()
Sea Level Pressure  
Sea Level Pressure 30.10 in    
Wind  
Wind Speed 10 mph (NE)    
Max Wind Speed 23 mph    
Max Gust Speed 29 mph    
Visibility 10 miles    
Events      
Averages and records for this station are not official NWS values.
T = Trace of Precipitation, MM = Missing Value Source: NWS Daily Summary

Daily Weather History Graph

Daily Weather History Graph

Search for Another Location

Airport or City:

Trip Planner

Search our weather history database for the weather conditions in past years. The results will help you decide how hot, cold, wet, or windy it might be!

Date:

Astronomy

Oct. 11, 2012 Rise Set
Actual Time 7:46 AM CDT 7:04 PM CDT
Civil Twilight 7:19 AM CDT 7:31 PM CDT
Nautical Twilight 6:47 AM CDT 8:03 PM CDT
Astronomical Twilight 6:15 AM CDT 8:34 PM CDT
Moon 3:25 AM CDT (10/11) 4:42 PM CDT (10/11)
Length of Visible Light 12h 12m
Length of Day
11h 17m
Waning Crescent, 18% of the Moon is Illuminated
Oct 11
Waning Crescent
Oct 15
New
Oct 21
First Quarter
Oct 29
Full
Nov 6
Last Quarter

Hourly Weather History & Observations

Time (CDT) Temp. Windchill Dew Point Humidity Pressure Visibility Wind Dir Wind Speed Gust Speed Precip Events Conditions
12:15 AM 52.9 °F - 31.5 °F 44% 29.99 in 10.0 mi South 12.7 mph 19.6 mph N/A   Clear
12:35 AM 52.3 °F - 31.1 °F 44% 29.98 in 10.0 mi South 11.5 mph 18.4 mph N/A   Clear
12:55 AM 51.8 °F - 31.1 °F 45% 29.98 in 10.0 mi South 9.2 mph - N/A   Clear
1:15 AM 52.2 °F - 30.9 °F 44% 29.98 in 10.0 mi South 9.2 mph - N/A   Clear
1:55 AM 50.7 °F - 31.1 °F 47% 29.97 in 10.0 mi ESE 4.6 mph - N/A   Clear
2:15 AM 48.6 °F - 31.6 °F 52% 29.98 in 10.0 mi ESE 5.8 mph - N/A   Clear
2:55 AM 49.1 °F - 32.0 °F 52% 29.97 in 10.0 mi South 9.2 mph - N/A   Clear
3:15 AM 47.5 °F - 32.0 °F 55% 29.97 in 10.0 mi SE 3.5 mph - N/A   Clear
3:35 AM 46.4 °F 42.4 °F 32.4 °F 58% 29.96 in 10.0 mi SSE 8.1 mph - N/A   Clear
3:55 AM 45.1 °F 42.0 °F 32.2 °F 60% 29.96 in 10.0 mi SE 5.8 mph - N/A   Clear
4:15 AM 44.8 °F 41.6 °F 32.4 °F 62% 29.96 in 10.0 mi SSE 5.8 mph - N/A   Clear
4:35 AM 44.2 °F 41.8 °F 32.4 °F 63% 29.96 in 10.0 mi SE 4.6 mph - N/A   Clear
4:55 AM 44.1 °F 41.5 °F 32.0 °F 63% 29.95 in 10.0 mi SSE 4.6 mph - N/A   Clear
5:15 AM 41.5 °F 39.6 °F 31.8 °F 68% 29.95 in 10.0 mi East 3.5 mph - N/A   Clear
5:35 AM 40.3 °F 38.2 °F 32.0 °F 72% 29.94 in 10.0 mi SE 3.5 mph - N/A   Clear
5:55 AM 41.2 °F - 32.2 °F 70% 29.95 in 10.0 mi Calm Calm - N/A   Clear
6:15 AM 41.5 °F - 32.7 °F 71% 29.96 in 10.0 mi Calm Calm - N/A   Clear
6:35 AM 41.4 °F 39.4 °F 32.4 °F 70% 29.97 in 10.0 mi East 3.5 mph - N/A   Clear
6:55 AM 40.5 °F 38.4 °F 32.4 °F 73% 29.97 in 10.0 mi ESE 3.5 mph - N/A   Clear
7:15 AM 39.4 °F - 32.4 °F 76% 29.98 in 10.0 mi Calm Calm - N/A   Clear
7:35 AM 39.0 °F 35.7 °F 32.2 °F 76% 29.99 in 10.0 mi North 4.6 mph - N/A   Clear
7:55 AM 39.2 °F 35.9 °F 32.0 °F 75% 30.01 in 10.0 mi North 4.6 mph - N/A   Clear
8:15 AM 38.3 °F 33.9 °F 32.2 °F 79% 30.02 in 10.0 mi North 5.8 mph - N/A   Clear
8:35 AM 39.2 °F 35.9 °F 32.4 °F 76% 30.03 in 10.0 mi North 4.6 mph - N/A   Clear
8:55 AM 40.5 °F - 33.3 °F 75% 30.04 in 10.0 mi Calm Calm - N/A   Clear
9:15 AM 41.2 °F 39.2 °F 33.6 °F 74% 30.05 in 10.0 mi North 3.5 mph - N/A   Clear
9:35 AM 45.3 °F 39.7 °F 35.1 °F 67% 30.05 in 10.0 mi NNE 11.5 mph - N/A   Clear
9:55 AM 48.6 °F - 34.7 °F 59% 30.05 in 10.0 mi NNE 13.8 mph 19.6 mph N/A   Clear
10:15 AM 51.4 °F - 35.8 °F 55% 30.06 in 10.0 mi NNE 12.7 mph 19.6 mph N/A   Clear
10:35 AM 52.0 °F - 35.8 °F 54% 30.07 in 10.0 mi NNE 17.3 mph - N/A   Clear
10:55 AM 50.7 °F - 35.6 °F 56% 30.10 in 10.0 mi NNE 11.5 mph 18.4 mph N/A   Scattered Clouds
11:15 AM 53.8 °F - 36.1 °F 51% 30.09 in 10.0 mi NE 17.3 mph - N/A   Clear
11:35 AM 54.9 °F - 35.6 °F 48% 30.11 in 10.0 mi NNE 9.2 mph 20.7 mph N/A   Clear
11:55 AM 54.3 °F - 34.2 °F 47% 30.11 in 10.0 mi NNE 19.6 mph 25.3 mph N/A   Clear
12:15 PM 54.7 °F - 34.7 °F 47% 30.11 in 10.0 mi NNE 20.7 mph 25.3 mph N/A   Clear
12:55 PM 56.3 °F - 34.5 °F 44% 30.12 in 10.0 mi NNE 23.0 mph 28.8 mph N/A   Clear
1:15 PM 55.9 °F - 34.5 °F 45% 30.12 in 10.0 mi NNE 21.9 mph 27.6 mph N/A   Clear
1:35 PM 57.0 °F - 34.9 °F 43% 30.12 in 10.0 mi NNE 13.8 mph 26.5 mph N/A   Clear
1:55 PM 56.3 °F - 34.5 °F 44% 30.12 in 10.0 mi NE 20.7 mph 27.6 mph N/A   Clear
2:15 PM 56.5 °F - 34.5 °F 44% 30.12 in 10.0 mi NNE 19.6 mph 26.5 mph N/A   Clear
2:35 PM 57.7 °F - 34.3 °F 41% 30.13 in 10.0 mi NNE 23.0 mph 27.6 mph N/A   Clear
2:55 PM 57.7 °F - 34.0 °F 41% 30.13 in 10.0 mi NE 20.7 mph 26.5 mph N/A   Clear
3:15 PM 56.7 °F - 33.4 °F 42% 30.14 in 10.0 mi NE 18.4 mph 26.5 mph N/A   Clear
3:55 PM 56.5 °F - 33.1 °F 41% 30.16 in 10.0 mi NNE 18.4 mph 27.6 mph N/A   Clear
4:15 PM 56.5 °F - 32.9 °F 41% 30.16 in 10.0 mi NE 18.4 mph 24.2 mph N/A   Clear
5:15 PM 54.0 °F - 30.0 °F 40% 30.19 in 10.0 mi NE 17.3 mph 24.2 mph N/A   Clear
5:35 PM 53.2 °F - 29.1 °F 40% 30.20 in 10.0 mi ENE 17.3 mph 24.2 mph N/A   Clear
5:55 PM 52.7 °F - 29.1 °F 40% 30.20 in 10.0 mi NE 13.8 mph 20.7 mph N/A   Clear
6:35 PM 50.9 °F - 28.0 °F 41% 30.22 in 10.0 mi NE 15.0 mph - N/A   Clear
6:55 PM 49.6 °F - 27.5 °F 42% 30.23 in 10.0 mi NNE 13.8 mph 17.3 mph N/A   Clear
7:15 PM 48.0 °F - 26.6 °F 43% 30.24 in 10.0 mi NE 10.4 mph - N/A   Clear
7:35 PM 47.3 °F - 25.7 °F 43% 30.25 in 10.0 mi ENE 9.2 mph - N/A   Clear
8:15 PM 44.6 °F 40.7 °F 25.7 °F 48% 30.27 in 10.0 mi NE 6.9 mph - N/A   Clear
8:35 PM 42.8 °F 38.6 °F 25.7 °F 51% 30.27 in 10.0 mi NE 6.9 mph - N/A   Clear
8:55 PM 41.0 °F 36.4 °F 25.5 °F 54% 30.27 in 10.0 mi NE 6.9 mph - N/A   Clear
9:15 PM 40.3 °F 35.5 °F 25.3 °F 55% 30.28 in 10.0 mi NNE 6.9 mph - N/A   Clear
9:35 PM 40.3 °F 34.9 °F 24.8 °F 54% 30.29 in 10.0 mi NE 8.1 mph - N/A   Clear
9:55 PM 41.7 °F 35.6 °F 24.3 °F 50% 30.29 in 10.0 mi NE 10.4 mph - N/A   Clear
10:35 PM 41.0 °F 35.8 °F 24.3 °F 51% 30.31 in 10.0 mi NE 8.1 mph - N/A   Clear
10:55 PM 39.4 °F 35.2 °F 24.4 °F 55% 30.32 in 10.0 mi NE 5.8 mph - N/A   Clear
11:15 PM 38.7 °F 33.6 °F 24.6 °F 57% 30.33 in 10.0 mi NNE 6.9 mph - N/A   Clear
11:35 PM 38.1 °F 32.9 °F 24.8 °F 59% 30.33 in 10.0 mi NNE 6.9 mph - N/A   Clear
11:55 PM 37.8 °F 32.5 °F 25.3 °F 61% 30.32 in 10.0 mi NE 6.9 mph - N/A   Clear